EN

Hourly Weather Gogoliha

Today, 16 May, Sunday

Time Temperature Precipitation Wind Pressure Humidity
00:00 +12°C° 0 mm 2 mps 739 mmHg 95%
01:00 +12°C° 0 mm 2 mps 739 mmHg 96%
02:00 +10°C° 0 mm 2 mps 739 mmHg 97%
03:00 +12°C° 0 mm 2 mps 739 mmHg 96%
04:00 +11°C° 0 mm 3 mps 739 mmHg 95%
05:00 +11°C° 0 mm 3 mps 740 mmHg 94%
06:00 +13°C° 0 mm 3 mps 740 mmHg 88%
07:00 +14°C° 0 mm 4 mps 740 mmHg 81%
08:00 +17°C° 0 mm 4 mps 741 mmHg 74%
09:00 +18°C° 0.2 mm 4 mps 741 mmHg 70%
10:00 +19°C° 0.2 mm 4 mps 741 mmHg 66%
11:00 +20°C° 0.2 mm 4 mps 741 mmHg 63%
12:00 +20°C° 0.5 mm 4 mps 742 mmHg 65%
13:00 +20°C° 0.5 mm 4 mps 742 mmHg 67%
14:00 +20°C° 0.5 mm 3 mps 742 mmHg 68%
15:00 +20°C° 0.5 mm 3 mps 742 mmHg 72%
16:00 +19°C° 0.5 mm 3 mps 742 mmHg 75%
17:00 +19°C° 0.5 mm 2 mps 742 mmHg 78%
18:00 +17°C° 0 mm 2 mps 743 mmHg 82%
19:00 +16°C° 0 mm 2 mps 743 mmHg 87%
20:00 +14°C° 0 mm 1 mps 743 mmHg 91%
21:00 +14°C° 0 mm 1 mps 743 mmHg 92%
22:00 +13°C° 0 mm 1 mps 744 mmHg 92%
23:00 +13°C° 0 mm 1 mps 744 mmHg 92%

Tomorrow, 17 May, Monday

Time Temperature Precipitation Wind Pressure Humidity
00:00 +13°C° 0 mm 1 mps 744 mmHg 92%
01:00 +12°C° 0 mm 1 mps 744 mmHg 93%
02:00 +11°C° 0 mm 0 mps 745 mmHg 93%
03:00 +13°C° 0 mm 1 mps 745 mmHg 92%
04:00 +13°C° 0 mm 1 mps 745 mmHg 92%
05:00 +14°C° 0 mm 1 mps 745 mmHg 91%
06:00 +15°C° 0 mm 1 mps 745 mmHg 86%
07:00 +17°C° 0 mm 2 mps 746 mmHg 81%
08:00 +18°C° 0 mm 2 mps 746 mmHg 76%
09:00 +20°C° 0 mm 2 mps 746 mmHg 69%
10:00 +21°C° 0 mm 3 mps 746 mmHg 62%
11:00 +22°C° 0 mm 3 mps 746 mmHg 55%
12:00 +24°C° 0 mm 3 mps 745 mmHg 53%
13:00 +24°C° 0 mm 3 mps 745 mmHg 52%
14:00 +25°C° 0 mm 3 mps 745 mmHg 50%
15:00 +25°C° 0 mm 3 mps 744 mmHg 53%
16:00 +24°C° 0 mm 3 mps 744 mmHg 56%
17:00 +23°C° 0 mm 4 mps 744 mmHg 59%
18:00 +22°C° 0.1 mm 4 mps 743 mmHg 68%
19:00 +20°C° 0.1 mm 4 mps 743 mmHg 76%
20:00 +18°C° 0.1 mm 4 mps 743 mmHg 85%
21:00 +18°C° 0.2 mm 4 mps 743 mmHg 89%
22:00 +17°C° 0.2 mm 3 mps 742 mmHg 92%
23:00 +16°C° 0.2 mm 3 mps 742 mmHg 95%

Day after tomorrow, 18 May, Tuesday

Time Temperature Precipitation Wind Pressure Humidity
00:00 +16°C° 0 mm 3 mps 742 mmHg 95%
01:00 +16°C° 0 mm 3 mps 742 mmHg 96%
02:00 +16°C° 0 mm 3 mps 742 mmHg 96%
03:00 +16°C° 0 mm 3 mps 742 mmHg 94%
04:00 +16°C° 0 mm 3 mps 741 mmHg 92%
05:00 +16°C° 0 mm 3 mps 741 mmHg 90%
06:00 +18°C° 0 mm 4 mps 741 mmHg 81%
07:00 +20°C° 0 mm 4 mps 741 mmHg 73%
08:00 +22°C° 0 mm 5 mps 741 mmHg 64%
09:00 +23°C° 0 mm 5 mps 741 mmHg 58%
10:00 +26°C° 0 mm 5 mps 741 mmHg 52%
11:00 +27°C° 0 mm 6 mps 741 mmHg 46%
12:00 +28°C° 0 mm 6 mps 741 mmHg 45%
13:00 +28°C° 0 mm 6 mps 740 mmHg 43%
14:00 +28°C° 0 mm 6 mps 740 mmHg 42%
15:00 +28°C° 0 mm 6 mps 740 mmHg 44%
16:00 +27°C° 0 mm 5 mps 740 mmHg 46%
17:00 +26°C° 0 mm 5 mps 740 mmHg 48%
18:00 +23°C° 0 mm 5 mps 740 mmHg 56%
19:00 +21°C° 0 mm 4 mps 740 mmHg 63%
20:00 +19°C° 0 mm 3 mps 740 mmHg 71%
21:00 +19°C° 0 mm 3 mps 740 mmHg 74%
22:00 +18°C° 0 mm 3 mps 740 mmHg 77%
23:00 +17°C° 0 mm 3 mps 740 mmHg 81%

19 May, Wednesday

Time Temperature Precipitation Wind Pressure Humidity
00:00 +17°C° 0 mm 3 mps 740 mmHg 83%
01:00 +17°C° 0 mm 3 mps 740 mmHg 84%
02:00 +16°C° 0 mm 3 mps 740 mmHg 86%
03:00 +17°C° 0 mm 3 mps 740 mmHg 86%
04:00 +17°C° 0 mm 3 mps 739 mmHg 85%
05:00 +17°C° 0 mm 3 mps 739 mmHg 84%
06:00 +19°C° 0 mm 4 mps 739 mmHg 75%
07:00 +21°C° 0 mm 4 mps 739 mmHg 67%
08:00 +22°C° 0 mm 5 mps 739 mmHg 58%
09:00 +25°C° 0 mm 5 mps 739 mmHg 52%
10:00 +26°C° 0 mm 5 mps 739 mmHg 46%
11:00 +28°C° 0 mm 5 mps 739 mmHg 40%
12:00 +28°C° 0 mm 5 mps 739 mmHg 40%
13:00 +28°C° 0 mm 5 mps 739 mmHg 39%
14:00 +29°C° 0 mm 5 mps 738 mmHg 38%
15:00 +28°C° 0 mm 5 mps 738 mmHg 41%
16:00 +28°C° 0 mm 5 mps 737 mmHg 45%
17:00 +27°C° 0 mm 5 mps 737 mmHg 48%
18:00 +25°C° 0.3 mm 5 mps 737 mmHg 57%
19:00 +21°C° 0.3 mm 5 mps 737 mmHg 66%
20:00 +19°C° 0.3 mm 5 mps 737 mmHg 75%
21:00 +17°C° 0 mm 4 mps 737 mmHg 81%
22:00 +16°C° 0 mm 3 mps 738 mmHg 87%
23:00 +14°C° 0 mm 3 mps 738 mmHg 93%

20 May, Thursday

Time Temperature Precipitation Wind Pressure Humidity
00:00 +14°C° 0 mm 3 mps 738 mmHg 94%
01:00 +14°C° 0 mm 3 mps 738 mmHg 96%
02:00 +14°C° 0 mm 3 mps 737 mmHg 97%
03:00 +14°C° 0 mm 3 mps 737 mmHg 96%
04:00 +15°C° 0 mm 2 mps 737 mmHg 96%
05:00 +15°C° 0 mm 2 mps 737 mmHg 95%
06:00 +15°C° 0.6 mm 2 mps 737 mmHg 95%
07:00 +15°C° 0.6 mm 2 mps 737 mmHg 94%
08:00 +15°C° 0.6 mm 2 mps 736 mmHg 94%
09:00 +16°C° 0.3 mm 2 mps 736 mmHg 89%
10:00 +16°C° 0.3 mm 2 mps 736 mmHg 84%
11:00 +17°C° 0.3 mm 2 mps 736 mmHg 79%
12:00 +17°C° 0.6 mm 3 mps 736 mmHg 78%
13:00 +18°C° 0.6 mm 3 mps 736 mmHg 77%
14:00 +18°C° 0.6 mm 4 mps 736 mmHg 76%
15:00 +18°C° 0.4 mm 4 mps 735 mmHg 78%
16:00 +18°C° 0.4 mm 4 mps 735 mmHg 80%
17:00 +17°C° 0.4 mm 3 mps 735 mmHg 81%
18:00 +16°C° 0.4 mm 3 mps 735 mmHg 85%
19:00 +14°C° 0.4 mm 3 mps 735 mmHg 89%
20:00 +13°C° 0.4 mm 3 mps 735 mmHg 93%
21:00 +13°C° 0.2 mm 3 mps 736 mmHg 94%
22:00 +12°C° 0.2 mm 4 mps 736 mmHg 95%
23:00 +12°C° 0.2 mm 4 mps 737 mmHg 96%

21 May, Friday

Time Temperature Precipitation Wind Pressure Humidity
00:00 +12°C° 0.1 mm 4 mps 737 mmHg 95%
01:00 +11°C° 0.1 mm 4 mps 738 mmHg 94%
02:00 +11°C° 0.1 mm 3 mps 739 mmHg 93%
03:00 +11°C° 0 mm 3 mps 739 mmHg 93%
04:00 +10°C° 0 mm 3 mps 740 mmHg 93%
05:00 +10°C° 0 mm 3 mps 740 mmHg 94%
06:00 +11°C° 0.1 mm 3 mps 741 mmHg 91%
07:00 +11°C° 0.1 mm 3 mps 741 mmHg 88%
08:00 +13°C° 0.1 mm 2 mps 742 mmHg 85%
09:00 +15°C° 0.1 mm 2 mps 742 mmHg 75%
10:00 +16°C° 0.1 mm 1 mps 742 mmHg 66%
11:00 +19°C° 0.1 mm 1 mps 742 mmHg 56%
12:00 +19°C° 0.1 mm 1 mps 742 mmHg 57%
13:00 +17°C° 0.1 mm 2 mps 741 mmHg 59%
14:00 +17°C° 0.1 mm 2 mps 741 mmHg 60%
15:00 +16°C° 1 mm 2 mps 740 mmHg 71%
16:00 +14°C° 1 mm 2 mps 740 mmHg 83%
17:00 +13°C° 1 mm 1 mps 739 mmHg 95%
18:00 +12°C° 2.3 mm 1 mps 739 mmHg 95%
19:00 +12°C° 2.3 mm 2 mps 738 mmHg 96%
20:00 +12°C° 2.3 mm 2 mps 738 mmHg 97%
21:00 +10°C° 0.6 mm 2 mps 738 mmHg 97%
22:00 +10°C° 0.6 mm 2 mps 738 mmHg 96%
23:00 +10°C° 0.6 mm 3 mps 738 mmHg 96%
Show more